Tracking 19709 objects as of 20-Jun-2019
HD Live streaming from Space Station
objects crossing your sky now

TVSAT 2

Track TVSAT 2 now!
TVSAT 2 is classified as:


NORAD ID: 20168
Int'l Code: 1989-062A
Perigee: 35,891.7 km
Apogee: 35,929.8 km
Inclination: 14.5 °
Period: 1,442.1 minutes
Semi major axis: 42281 km
RCS: 2.0976 m2 (large)
Launch date: August 8, 1989
Source: Germany (GER)
Launch site: FRENCH GUIANA (FRGUI)
aabbcc
Your satellite tracking list
Your tracking list is empty




NASA's NSSDC Master Catalog

Two Line Element Set (TLE):
1 20168U 89062A   19171.86937639 -.00000298  00000-0  00000+0 0  9991
2 20168  14.5432  16.4024 0004505  48.2540 306.5784  0.99856002109004
Source of the keplerian elements: AFSPC